User: anonymous   Login
Location: Moena
(46.3667°N, 11.6500°E)
Time: 12:27:11
(UTC+00:00)
Language:

Sich 1 - Orbit

View from above orbital plane
View from above orbital plane
View from above satellite
View from above satellite

Ground track
Ground track

The orbit data is extracted from the following two-line orbital elements,

1 23657U 95046A   21138.05897760  .00000178  00000-0  17342-4 0  9991
2 23657  82.5274 356.1680 0022776  27.6845 332.5578 14.86287342389983
Epoch (UTC): 18 May 2021 01:24:55
Eccentricity: 0.0022776
inclination: 82.5274°
perigee height: 593 km
apogee height: 625 km
right ascension of ascending node: 356.1680°
argument of perigee: 27.6845°
revolutions per day: 14.86287342
mean anomaly at epoch: 332.5578°
orbit number at epoch: 38998

The dashed part of the orbit path shows where the satellite is in the earth's shadow,  

DLR